Regional Weather Roundup
Issued by NWS San Diego, CA

Home | Current Version | Previous Version | Text Only | Print | Product List | Glossary On
Versions: 1 2 3 4 5 6 7 8 9 10 11 12 13 14 15 16 17 18 19 20 21 22 23 24 25 26 27 28 29 30 31 32 33 34 35 36 37 38 39 40 41 42 43 44 45 46 47 48 49 50
000
ASUS46 KSGX 291011
RWRSGX

SAN DIEGO HOURLY WEATHER ROUNDUP
NATIONAL WEATHER SERVICE SAN DIEGO CA
300 AM PDT WED JUL 29 2015

NOTE: "FAIR" INDICATES FEW OR NO CLOUDS BELOW 12,000 FEET WITH NO
SIGNIFICANT WEATHER AND/OR OBSTRUCTIONS TO VISIBILITY.

CAZ042-043-060-061-PZZ750-775-291100-

GREATER SAN DIEGO AREA

CITY           SKY/WX    TMP DP  RH WIND       PRES   REMARKS
LINDBERGH FLD  MOCLDY    70  61  73 W5        29.92S
POINT LOMA       N/A     67  62  84 W3          N/A
NATIONAL CITY    N/A     69  65  86 CALM      29.91F
CHULA VISTA      N/A     68  64  89 CALM      29.84S
IMPERIAL BEACH CLOUDY   N/A N/A N/A CALM      29.91R
BROWN FIELD    CLOUDY    65  62  90 CALM      29.92R
MIRAMAR MCAS   CLOUDY    70  61  73 W3        29.91S
MONTGOMERY FLD CLOUDY    68  62  81 CALM      29.91S

$$

NORTH SAN DIEGO COUNTY

CITY           SKY/WX    TMP DP  RH WIND       PRES   REMARKS
CAMP PENDLETON CLOUDY    65  59  81 MISG      29.90F
OCEANSIDE AP   CLOUDY    66  61  84 CALM      29.89F
OCEANSIDE HBR    N/A     67  64  89 E2        29.92F
VISTA            N/A     64  59  83 CALM      29.88F
CARLSBAD       CLOUDY    67  63  87 CALM      29.90S
DEL MAR          N/A     66  64  94 CALM      29.92F
FALLBROOK        N/A     64  64 100 CALM      29.92S
ESCONDIDO        N/A     66  62  87 W2        29.92F
POWAY            N/A     64  60  87 CALM      29.91F

$$

EAST SAN DIEGO COUNTY

CITY           SKY/WX    TMP DP  RH WIND       PRES   REMARKS
RAMONA         CLEAR     62  59  90 W5        29.93S
SANTEE LAKES     N/A     65  61  88 CALM      29.90S
LA MESA          N/A     65  62  90 CALM      29.84S
JAMUL            N/A     63  61  94 CALM      29.90R
DESCANSO N       N/A     71  58  62 CALM      29.74F
CAMPO            N/A     63  54  72 NE3       29.94R

$$

ORANGE COUNTY AND THE LOS ANGELES BASIN

CITY           SKY/WX    TMP DP  RH WIND       PRES   REMARKS
JOHN WAYNE AP  CLOUDY    70  64  81 S3        29.90F
LAKE FOREST FR   N/A     65  60  84 CALM      29.79F
SANTA ANA        N/A     70  64  80 CALM      29.85F
HUNTINGTON BCH   N/A     67  65  94 CALM      29.91F
LOS ALAMITOS   FAIR      66  65  96 NW1       29.90F
FULLERTON      CLOUDY    71  65  81 CALM      29.89F
LONG BEACH     CLOUDY    69  64  84 NW3       29.90F
L.A. AP        CLOUDY    66  63  90 NW5       29.90F
L.A. DOWNTOWN  PTCLDY    66  62  87 CALM      29.89F

$$

THE INLAND EMPIRE

CITY           SKY/WX    TMP DP  RH WIND       PRES   REMARKS
CORONA         CLEAR     66  63  90 CALM      29.91F
CHINO          CLEAR     67  62  84 CALM      29.92S
ONTARIO        CLEAR     67  61  81 W3        29.91F
RIVERSIDE AP   CLEAR     69  62  78 VRB3      29.91F
MORENO VALLEY    N/A     67  64  91 CALM      29.87F
MARCH ARB      CLEAR     66  64  94 NW3       29.92F
HORSETHIEF CYN   N/A     66  58  75 W3        29.91F
PERRIS           N/A     68  63  84 SW3       29.94S
MENIFEE          N/A     68  63  82 CALM      29.96S
HEMET EAST       N/A     69  56  63 CALM      29.89F
FRENCH VALLEY  FAIR      66  59  77 CALM      29.92F
TEMECULA         N/A     65  62  90 CALM      29.87F

$$

SAN BERNARDINO AND RIVERSIDE COUNTY MOUNTAINS

CITY           SKY/WX    TMP DP  RH WIND       PRES   REMARKS
BIG BEAR AP    CLEAR     45  32  61 CALM      30.29R
ANGELUS OAKS     N/A     62  38  42 CALM      29.79S
PINE COVE        N/A     68  47  47 CALM      29.84F

$$

SOUTHERN DESERT INCLUDING THE COACHELLA VALLEY

CITY           SKY/WX    TMP DP  RH WIND       PRES   REMARKS
PALM SPRINGS   CLEAR     86  58  38 VRB3      29.84S
THOUSAND PALMS   N/A     87  56  35 E2        29.79S
PALM DESERT      N/A     85  62  45 CALM        N/A
THERMAL        CLEAR     81  62  52 NE3       29.79R
BLYTHE         PTCLDY    91  65  41 S12       29.83S
IMPERIAL AP    LGT RAIN  87  74  64 SE15      29.78R HX  95
EL CENTRO NAS  CLEAR     87  72  60 SE12      29.80R
YUMA AZ        MOCLDY    90  68  48 S6        29.82F

$$

UPPER DESERT

CITY           SKY/WX    TMP DP  RH WIND       PRES   REMARKS
VICTORVILLE AP CLEAR     72  41  33 CALM      29.99S
HESPERIA         N/A     69  46  42 W1        29.94F
APPLE VALLEY     N/A     68  41  37 CALM      30.04S
PALMDALE       CLEAR     69  44  40 SW7       29.97F
LANCASTER      CLEAR     72  40  31 CALM      29.96S
EDWARDS AFB    CLEAR     71  43  36 SW6       29.93F
DAGGETT        CLEAR     79  30  16 W12       29.92S
29 PALMS N     CLEAR     80  46  30 CALM      29.99S
NEEDLES        MOCLDY    93  42  17 SW5       29.84R

$$

REGIONAL REPORTS

CITY           SKY/WX    TMP DP  RH WIND       PRES   REMARKS
SANTA BARBARA  CLOUDY    63  61  93 S6        29.90F FOG
SANDBERG       CLEAR     75  13   9 S9        30.11S
LAS VEGAS NV   PTCLDY    84  30  14 SW8       29.88S
PHOENIX AZ     CLOUDY    88  61  40 SE8       29.91R
TIJUANA        MOCLDY    66  59  77 CALM      29.93S
ENSENADA NW      N/A     68  32  26 CALM      29.88S

$$

OFFSHORE ISLANDS

CITY           SKY/WX    TMP DP  RH WIND       PRES   REMARKS
CATALINA ARPT  FOG       61  60  97 NE3       29.94F VSB 1/4
SAN NICOLAS IS CLOUDY   N/A N/A N/A W8        29.91F HAZE

$$

MARINE AND OFFSHORE BUOY REPORTS

STATION/POSITION SKY/WX   TEMP    WIND        PRES    SWELL
                          AIR SEA DIR/SP/G            HT/PER/DIR
                          (F)     (DEG/KT/KT) (MB)    (FT/S/D)
TANNER BANKS               64 68  290/  8/ 12 1012.9F   5/230/16
S CLEMENTE BASIN           66 69  320/  2/  6 1012.6F   5/230/16
SAN NICOLAS IS.               66                N/A     3/220/15
SO. S. ROSA ISLA           62 67  320/  8/ 12 1012.0F   7/10
W. S. BARBARA CH           59 59  300/ 10/ 12 1012.2R   5/240/16
M. S. BARBARA CH           61 66  220/  8/ 10 1013.5R
S. MONICA BASIN            67 72   CALM  /  2 1012.7F   3/220/16
S PEDRO CHANNEL               72                N/A     2/220/17
DANA POINT                    72                N/A     3/200/17
OCEANSIDE OFFSHR              73                N/A     3/210/17
TORREY PINES OTR              72                N/A     3/210/17
LA JOLLA 1                 68 73  100/  1/  2 1012.6F
MISSION BAY BUOY              72                N/A     3/210/15
SAN DIEGO BAY                 75              1013.1F
POINT LOMA SOUTH              71                N/A     3/230/17

$$



USA.gov is the U.S. government's official web portal to all federal, state and local government web resources and services.